sat.trackr.live / text

‹ back to catalog

STARLINK-30300

NORAD 57715 · 2023-129T

PAYLOAD ACTIVE UNKNOWN

§ Identity

Operator
Country
US
Launch date
2023-08-27
Launch site
AFETR
Launch vehicle
Mass (kg)
RCS (m²)

Purposes: comms

External: N2YO · Heavens-Above · Gunter

§ Orbital elements

Epoch: 2026-05-25T03:16:55.034112Z

Period
94.27 min
Inclination
43.0022°
Eccentricity
0.0001037
Mean motion
15.27596399 rev/d
Perigee alt
482.3 km
Apogee alt
483.7 km
Semi-major
6,861.1 km
B*
-1.7397e-5
RAAN
46.2146°
Arg perigee
245.4844°
Mean anomaly
114.5900°
Rev number
15,237

§ Raw data

STARLINK-303001 57715U 23129T   26145.13674808 -.00000741  00000+0 -17397-4 0  99912 57715  43.0022  46.2146 0001037 245.4844 114.5900 15.27596399152377

JSON: /api/v1/satellites/57715 · /tle

For live sub-satellite position, see the globe view (requires WebGL).

§ Visibility from observer

Set your observer location to see the next 7 days of passes ≥ 10°. The values pass through the URL so the page stays shareable.

No JS? Fill the form by hand. The geolocation button needs JavaScript.